SITRO-AIS 28

Last updated on Wed Oct 29 2025 00:03:53 GMT+0000 (Coordinated Universal Time)

1 59071U 24039U 25301.62983709 .00005870 00000+0 47701-3 0 9996 2 59071 95.3924 76.3341 0152223 56.1536 305.4068 14.91068919 90206
UTC large
Height (km)
Speed (km/s)
/
Latitude / Longitude
Inclination (degrees)
Orbital Period (minutes)
Azimuth
Elevation
Range (km)
Doppler Factor

Next 0 passes for location: London (51.5072 / 0.1276)

Sorry there are no passes over London.